Weather History for Cut Bank, MT

Change the Weather History Date:

Wednesday, August 7, 2013

  Actual Average Record
Temperature  
Mean Temperature 65 °F 66 °F  
Max Temperature 80 °F 82 °F 100 °F (1930)
Min Temperature 49 °F 50 °F 32 °F (1939)
Degree Days  
Heating Degree Days 0 2  
Month to date heating degree days 20 14  
Since 1 June heating degree days 270 333  
Since 1 July heating degree days 61 100  
Cooling Degree Days 0 3  
Month to date cooling degree days 0 21  
Year to date cooling degree days 99 110  
Since 1 June cooling degree days 97 108  
Growing Degree Days 14 (Base 50)    
Moisture  
Dew Point 52 °F    
Average Humidity 62    
Maximum Humidity 89    
Minimum Humidity 35    
Precipitation  
Precipitation 0.14 in 0.04 in 0.57 in (1994)
Month to date precipitation 1.20 0.26  
Year to date precipitation 10.70 7.73  
Snow  
Snow 0.00 in - - ()
Snow Depth 0.00 in    
Sea Level Pressure  
Sea Level Pressure 29.99 in    
Wind  
Wind Speed 6 mph (East)    
Max Wind Speed 14 mph    
Max Gust Speed 18 mph    
Visibility 10 miles    
Events Rain    
T = Trace of Precipitation, MM = Missing Value Source: NWS Daily Summary

Daily Weather History Graph

Daily Weather History Graph

Search for Another Location

Airport:

Trip Planner

Search our weather history database for the weather conditions in past years. The results will help you decide how hot, cold, wet, or windy it might be!

Date:

Astronomy

Aug. 07, 2013 Rise Set
Actual Time 6:12 AM MDT 8:57 PM MDT
Civil Twilight 5:36 AM MDT 9:33 PM MDT
Nautical Twilight 4:50 AM MDT 10:18 PM MDT
Astronomical Twilight 3:55 AM MDT 11:12 PM MDT
Moon 7:14 AM MDT (8/7) 8:54 PM MDT (8/7)
Length of Visible Light 15h 56m
Length of Day
14h 45m
New Moon, 1% of the Moon is Illuminated
Aug 7
New Moon
Aug 14
First Quarter
Aug 20
Full
Aug 28
Last Quarter
Sep 5
New

Hourly Weather History & Observations

Time (MDT) Temp. Dew Point Humidity Pressure Visibility Wind Dir Wind Speed Gust Speed Precip Events Conditions
12:56 AM 59.0 °F 50.0 °F 72% 30.00 in 10.0 mi South 3.5 mph - N/A   Partly Cloudy
1:56 AM 54.0 °F 48.9 °F 83% 30.02 in 10.0 mi NNE 8.1 mph - N/A   Partly Cloudy
2:56 AM 54.0 °F 48.9 °F 83% 30.01 in 10.0 mi NE 8.1 mph - N/A   Scattered Clouds
3:56 AM 52.0 °F 48.0 °F 86% 30.00 in 10.0 mi North 8.1 mph - N/A   Clear
4:56 AM 50.0 °F 46.9 °F 89% 30.00 in 10.0 mi NNW 6.9 mph - N/A   Clear
5:56 AM 51.1 °F 48.0 °F 89% 30.01 in 10.0 mi NW 11.5 mph - N/A   Scattered Clouds
6:56 AM 52.0 °F 48.9 °F 89% 29.99 in 10.0 mi NNE 5.8 mph - N/A   Mostly Cloudy
7:56 AM 54.0 °F 50.0 °F 86% 30.00 in 10.0 mi Calm Calm - N/A   Clear
8:56 AM 59.0 °F 51.1 °F 75% 29.99 in 10.0 mi Calm Calm - N/A   Clear
9:56 AM 62.1 °F 51.1 °F 67% 29.99 in 10.0 mi South 3.5 mph - N/A   Clear
10:56 AM 66.0 °F 50.0 °F 56% 29.98 in 10.0 mi South 5.8 mph - N/A   Clear
11:56 AM 69.1 °F 50.0 °F 51% 29.98 in 10.0 mi South 6.9 mph - N/A   Clear
12:56 PM 72.0 °F 48.9 °F 44% 29.96 in 10.0 mi ESE 8.1 mph - N/A   Clear
1:56 PM 75.0 °F 50.0 °F 41% 29.96 in 10.0 mi SE 5.8 mph - N/A   Clear
2:56 PM 78.1 °F 48.9 °F 36% 29.95 in 10.0 mi NNE 8.1 mph - N/A   Clear
3:56 PM 75.0 °F 48.9 °F 40% 29.95 in 10.0 mi Calm Calm - N/A   Mostly Cloudy
4:56 PM 77.0 °F 51.1 °F 40% 29.95 in 10.0 mi ESE 8.1 mph - 0.00 in   Clear
5:56 PM 75.0 °F 50.0 °F 41% 29.94 in 10.0 mi SE 5.8 mph - N/A   Mostly Cloudy
6:34 PM 68.0 °F 55.4 °F 64% 30.03 in 2.5 mi East 10.4 mph 17.3 mph 0.13 in Rain Light Rain
6:41 PM 69.8 °F 59.0 °F 68% 30.02 in 10.0 mi East 5.8 mph - 0.13 in   Mostly Cloudy
6:56 PM 70.0 °F 59.0 °F 68% 29.96 in 10.0 mi ESE 5.8 mph - 0.13 in   Partly Cloudy
7:56 PM 71.1 °F 57.9 °F 63% 29.96 in 10.0 mi Calm Calm - N/A   Clear
8:56 PM 68.0 °F 57.0 °F 68% 29.97 in 10.0 mi ESE 4.6 mph - N/A   Partly Cloudy
9:56 PM 64.0 °F 55.9 °F 75% 30.00 in 10.0 mi East 6.9 mph - N/A   Scattered Clouds
10:56 PM 64.0 °F 53.1 °F 67% 30.02 in 10.0 mi ENE 9.2 mph - N/A   Overcast
11:56 PM 61.0 °F 53.1 °F 75% 30.02 in 10.0 mi East 10.4 mph - 0.01 in   Partly Cloudy